SL-8 DEB, 45523

Orbit data source: Space-Track

SL-8 DEB, 45523 is space debris in LEO originally from a launch on Tue, 27 Feb 1990 UTC launched from the Plesetsk Missile And Space Complex (PKMTR). Debris objects in space refer to the collection of defunct objects orbiting the Earth. Examples of debris include non-operational satellites, rocket bodies, and fragments generated from explosions, collisions, or faulty payload assembly.

Loading next visibility...
Identifier
45523, 1990-017D
Orbit
LEO
Country
Flag of CISCIS
Related business
Manufacturer
Unknown
Mission
Spacecraft
Bus & Motor
Unknown
Mass
Unknown
Launch date (UTC)
1990-02-27 (36 years ago)
Launch vehicle
Unknown
Launch site
Plesetsk Missile And Space Complex (PKMTR)
Object type
Payload
Rocket body
Debris
Shape & HBR
Unknown shape, 0.1 m
Radar Cross Section
Small (<0.1 m²)

Expand to show TLE details & history
Last TLE update: 3 days ago

TLE from 3 days ago
0 SL-8 DEB
1 45523U 90017D   26170.38533847  .00000171  00000-0  15674-3 0  9998
2 45523  82.9525  45.9788 0041650 323.2484  36.5819 13.77149309631595
Epoch: 2026-06-19T09:14Z
TLE epoch observation values (Epoch: 2026-06-19T09:14:53.243Z)
Latitude
-0.00001°
Longitude
-0.35812°
Altitude
952.369 km
Speed
7.388 km/s
True Right ascension
03h 03m 54s
True Declination
0° 00' 00"
Sunlit
Object was in daylight at epoch
Visualization orbit readout
Latitude
Unknown
Longitude
Unknown
Altitude
Unknown
Speed
Unknown
Apparent Right ascension
Unknown
Apparent Declination
Unknown
Sunlit
N/A
Visualization observer readout
Local Sidereal Time
21:28:27
Azimuth
Unknown
Elevation
Unknown
Doppler factor
Unknown
Orbital elements
Apogee altitude
1,001.77 km
Perigee altitude
940.551 km
Semi-major axis
7,349.298 km
Eccentricity
0.00417
Inclination
82.9525°
RAAN
45.9788°
Arg. of periapsis
323.2484°
True anomaly
36.86753°
Mean anomaly
36.5819°
Eccentric anomaly
36.7246°
Mean motion
3.44488 °/min
Orbital period
104.5 mins
BSTAR
0.00015674
Loading maneuver chart data...
Computing Atmospheric mass density...
Loading historical data...
Loading historical data...
Loading historical data...
Loading historical data...
Loading historical data...
Loading historical data...
Loading historical data...
Other satellites on launch #17 in the year 1990 (1990-02-27 UTC)

Documentation

Showing up to 5 results
|